San Jose del Cabo, Mexico

1:01 AM MST on February 18, 2018 (GMT -0700)
Los Cabos International

Weather History for MMSD - February, 2013

Change the Weather History Date:

Sunday, February 17, 2013

  Actual Average Record
Temperature  
Mean Temperature 65 °F -  
Max Temperature 77 °F 80 °F 89 °F (2004)
Min Temperature 53 °F 59 °F 51 °F (2008)
Growing Degree Days 15 (Base 50)    
Moisture  
Dew Point 47 °F    
Average Humidity 51    
Maximum Humidity 82    
Minimum Humidity 28    
Precipitation  
Precipitation 0.00 in - - ()
Sea Level Pressure  
Sea Level Pressure 29.97 in    
Wind  
Wind Speed 5 mph ()    
Max Wind Speed 18 mph    
Max Gust Speed -    
Visibility 14.1 miles    
Events      
Averages and records for this station are not official NWS values.
T = Trace of Precipitation, MM = Missing Value Source: Averaged Metar Reports

Daily Weather History Graph

Daily Weather History Graph

Search for Another Location

Airport or City:

Trip Planner

Search our weather history database for the weather conditions in past years. The results will help you decide how hot, cold, wet, or windy it might be!

Date:

Astronomy

Feb. 17, 2013 Rise Set
Actual Time 6:49 AM MST 6:16 PM MST
Civil Twilight 6:26 AM MST 6:39 PM MST
Nautical Twilight 6:00 AM MST 7:05 PM MST
Astronomical Twilight 5:33 AM MST 7:31 PM MST
Moon 11:38 AM MST (2/17) 12:22 AM MST (2/17)
Length of Visible Light 12h 12m
Length of Day
11h 26m
Waxing Crescent, 49% of the Moon is Illuminated
Feb 17
Waxing Crescent
Feb 17
First Quarter
Feb 25
Full
Mar 4
Last Quarter
Mar 11
New

Hourly Weather History & Observations

Time (MST) Temp. Dew Point Humidity Pressure Visibility Wind Dir Wind Speed Gust Speed Precip Events Conditions
12:42 AM 60.8 °F 50.0 °F 68% 29.97 in 15.0 mi Calm Calm - N/A   Partly Cloudy
1:52 AM 57.2 °F 50.0 °F 77% 29.95 in 15.0 mi WNW 5.8 mph - N/A   Partly Cloudy
2:43 AM 57.2 °F 48.2 °F 72% 29.97 in 15.0 mi North 3.5 mph - N/A   Partly Cloudy
6:57 AM 53.6 °F 42.8 °F 67% 29.98 in 15.0 mi Calm Calm - N/A   Clear
7:54 AM 62.6 °F 42.8 °F 48% 29.97 in 15.0 mi Calm Calm - N/A   Clear
8:43 AM 66.2 °F 42.8 °F 43% 30.02 in 15.0 mi Calm Calm - N/A   Clear
9:45 AM 73.4 °F 41.0 °F 31% 30.02 in 15.0 mi Calm Calm - N/A   Clear
10:43 AM 77.0 °F 41.0 °F 28% 29.99 in 15.0 mi SE 12.7 mph - N/A   Clear
11:40 AM 75.2 °F 44.6 °F 34% 30.00 in 15.0 mi SSE 17.3 mph - N/A   Clear
12:45 PM 77.0 °F 44.6 °F 32% 29.98 in 15.0 mi SE 18.4 mph - N/A   Clear
1:54 PM 77.0 °F 44.6 °F 32% 29.93 in 15.0 mi SE 13.8 mph - N/A   Clear
2:45 PM 77.0 °F 46.4 °F 34% 29.94 in 15.0 mi SE 17.3 mph - N/A   Partly Cloudy
3:47 PM 77.0 °F 42.8 °F 29% 29.93 in 15.0 mi SSE 8.1 mph - N/A   Scattered Clouds
4:47 PM 75.2 °F 44.6 °F 34% 29.92 in 12.0 mi SE 13.8 mph - N/A   Mostly Cloudy
5:49 PM 71.6 °F 50.0 °F 46% 29.96 in 12.0 mi SE 13.8 mph - N/A   Scattered Clouds
6:51 PM 68.0 °F 55.4 °F 64% 29.98 in 12.0 mi SSE 4.6 mph - N/A   Clear
7:50 PM 66.2 °F 57.2 °F 73% 29.96 in 12.0 mi SSW 2.3 mph - N/A   Clear
8:53 PM 62.6 °F 55.4 °F 77% 30.00 in 12.0 mi West 3.5 mph - N/A   Clear
9:40 PM 62.6 °F 57.2 °F 82% 30.00 in 12.0 mi WNW 3.5 mph - N/A   Clear